Starlink 1230

operational
NORAD ID: 45189 Int'l Des: 2020-012 Owner: SPXS Country: US Constellation: starlink
LEOCIRCULARSTARLINK_TYPE

Starlink 1230について

説明を読み込み中...

リアルタイム位置

3D地球を読み込み中...

次回通過

高度履歴

Altitude vs Time

uPlot chart will show altitude changes over time

軌道要素

1 45189U 20012M 25306.13644594 .00000327 00000-0 40852-4 0 9999
2 45189 53.0533 259.2327 0001409 77.5467 282.5680 15.06385134312832
Epoch: Nov 2, 2025 • Age: 23 hours

現在のステータス

高度 552.6 km
速度 7.59 km/s
衛星直下点 52.14°N, 102.26°W
打ち上げ日 Feb 17, 2020
運用期間 5.7 years
タイプ internet

技術仕様

分類 Payload
質量 260.00 kg
乾燥質量 248.00 kg
総質量 260.00 kg
長さ 0.20 m
直径 2.80 m
スパン 9.00 m
形状 Box + pan
製造者 SPXS
バスタイプ Starlink
フェーズステータス In Orbit
所有者/国 SPXS/US

大規模コンステレーション

Loading constellations...